Regional Weather Roundup
Issued by NWS Cleveland, OH

Home | Current Version | Previous Version | Text Only | Print | Product List | Glossary Off
Versions: 1 2 3 4 5 6 7 8 9 10 11 12 13 14 15 16 17 18 19 20 21 22 23 24 25 26 27 28 29 30 31 32 33 34 35 36 37 38 39 40 41 42 43 44 45 46 47 48 49 50

000
ASUS41 KCLE 030400
RWRCLE
OHIO REGIONAL WEATHER ROUNDUP
NATIONAL WEATHER SERVICE WILMINGTON, OH
1200 AM EDT THU SEP 03 2015

NOTE: "FAIR" INDICATES FEW OR NO CLOUDS BELOW 12,000 FEET WITH NO
SIGNIFICANT WEATHER AND/OR OBSTRUCTIONS TO VISIBILITY.

OHZ001>008-015>018-024>027-034-035-043-044-030500-
   NORTHWEST OHIO

CITY           SKY/WX    TMP DP  RH WIND       PRES   REMARKS
DEFIANCE       PTCLDY    73  68  84 CALM      30.01R
FINDLAY        MOCLDY    73  69  87 SW7       30.01S
TOLEDO EXPRESS PTCLDY    71  69  93 CALM      29.99S
TOLEDO EXEC    CLEAR     74  69  85 SW5       29.99S
LIMA           MOCLDY    72  64  76 W9        30.05R
$$

OHZ009>014-019>023-028>033-038-089-030500-
   NORTHEAST OHIO

CITY           SKY/WX    TMP DP  RH WIND       PRES   REMARKS
CLE-HOPKINS    MOCLDY    75  68  78 SW7       30.00F
CLE-LAKEFRONT  MOCLDY    77  66  68 SW7       29.97F
CUY CO. ARPT   NOT AVBL
LORAIN-ELYRIA  CLEAR     70  68  93 SW5       30.00F
ASHTABULA      MOCLDY    69  68  96 CALM      30.00S FOG
AKRON-CANTON   CLOUDY    76  68  76 W5        30.02S
WOOSTER        NOT AVBL
MANSFIELD      MOCLDY    72  67  84 SW7       30.03F
YOUNGSTOWN     CLOUDY    73  68  84 SW3       30.01S
$$

OHZ042-051>053-060>062-070>072-077>081-030500-
  SOUTHWEST OHIO

CITY           SKY/WX    TMP DP  RH WIND       PRES   REMARKS
CINC-COVINGTON PTCLDY    75  66  73 CALM      30.04F
CINC-LUNKEN    CLEAR     70  69  97 CALM      30.03F
HAMILTON       CLEAR     69  67  93 CALM      30.04F
DAYTON         NOT AVBL
WRIGHT-PAT AFB NOT AVBL
DAYTON GENERAL CLEAR     71  66  84 CALM      30.04F
WILMINGTON     CLEAR     69  64  84 CALM      30.04F
$$

OHZ036-037-039>041-045>050-054>059-063>069-073>076-082>088-030500-
  CENTRAL AND SOUTHEAST OHIO

CITY           SKY/WX    TMP DP  RH WIND       PRES   REMARKS
COLUMBUS       CLOUDY    72  67  84 W5        30.03S
OSU AIRPORT    MOCLDY    72  67  84 S5        30.03F
BOLTON FIELD   NOT AVBL
RICKENBACK AFB NOT AVBL
NEWARK         MOCLDY    73  67  81 CALM      30.02F
MARION         CLOUDY    73  65  75 SW3       30.03F
LANCASTER      PTCLDY    69  66  90 E3        30.04F
ZANESVILLE     MOCLDY    72  64  76 CALM      30.02F
NEW PHILLY     PTCLDY    70  69  97 CALM      30.02F
$$


USA.gov is the U.S. government's official web portal to all federal, state and local government web resources and services.